User: anonymous   Login
Location: Vancouver
(49.2500°N, 123.1330°W)
Time: 16:14:38
(UTC-08:00)
Language:

SO-67 - Orbit

View from above orbital plane
View from above orbital plane
View from above satellite
View from above satellite

Ground track
Ground track

The orbit data is extracted from the following two-line orbital elements,

1 35870U 09049F   17018.40597153  .00003735  00000-0  64444-4 0  9990
2 35870  97.1109  36.6104 0000222  65.2883  42.0789 15.51651444409986
Epoch (UTC): 18 January 2017 09:44:35
Eccentricity: 0.0000222
inclination: 97.1109°
perigee height: 412 km
apogee height: 412 km
right ascension of ascending node: 36.6104°
argument of perigee: 65.2883°
revolutions per day: 15.51651444
mean anomaly at epoch: 42.0789°
orbit number at epoch: 40998

The dashed part of the orbit path shows where the satellite is in the earth's shadow,  

DLR